Hourly Weather Otradnoe

Today, 24 July, Saturday

Time Temperature Precipitation Wind Pressure Humidity
00:00 +14°C° 0 mm 2 mps 740 mmHg 70%
01:00 +14°C° 0 mm 2 mps 740 mmHg 69%
02:00 +14°C° 0 mm 2 mps 741 mmHg 69%
03:00 +14°C° 0 mm 2 mps 741 mmHg 70%
04:00 +13°C° 0 mm 2 mps 741 mmHg 71%
05:00 +13°C° 0 mm 2 mps 741 mmHg 72%
06:00 +14°C° 0 mm 2 mps 742 mmHg 65%
07:00 +15°C° 0 mm 2 mps 742 mmHg 58%
08:00 +17°C° 0 mm 2 mps 742 mmHg 52%
09:00 +18°C° 0 mm 2 mps 742 mmHg 46%
10:00 +19°C° 0 mm 2 mps 743 mmHg 41%
11:00 +20°C° 0 mm 2 mps 743 mmHg 35%
12:00 +21°C° 0 mm 2 mps 743 mmHg 34%
13:00 +21°C° 0 mm 2 mps 743 mmHg 33%
14:00 +23°C° 0 mm 2 mps 743 mmHg 32%
15:00 +21°C° 0 mm 2 mps 743 mmHg 37%
16:00 +20°C° 0 mm 2 mps 744 mmHg 42%
17:00 +19°C° 0 mm 3 mps 744 mmHg 47%
18:00 +18°C° 0 mm 2 mps 744 mmHg 53%
19:00 +16°C° 0 mm 2 mps 744 mmHg 58%
20:00 +15°C° 0 mm 1 mps 745 mmHg 63%
21:00 +14°C° 0 mm 1 mps 745 mmHg 66%
22:00 +13°C° 0 mm 1 mps 745 mmHg 68%
23:00 +13°C° 0 mm 1 mps 745 mmHg 70%

Tomorrow, 25 July, Sunday

Time Temperature Precipitation Wind Pressure Humidity
00:00 +12°C° 0 mm 1 mps 746 mmHg 71%
01:00 +12°C° 0 mm 1 mps 746 mmHg 73%
02:00 +12°C° 0 mm 1 mps 746 mmHg 74%
03:00 +12°C° 0 mm 1 mps 746 mmHg 73%
04:00 +13°C° 0 mm 1 mps 746 mmHg 72%
05:00 +13°C° 0 mm 1 mps 747 mmHg 71%
06:00 +15°C° 0 mm 1 mps 747 mmHg 63%
07:00 +19°C° 0 mm 1 mps 747 mmHg 54%
08:00 +21°C° 0 mm 1 mps 747 mmHg 45%
09:00 +22°C° 0 mm 1 mps 747 mmHg 41%
10:00 +24°C° 0 mm 1 mps 747 mmHg 37%
11:00 +25°C° 0 mm 1 mps 747 mmHg 33%
12:00 +25°C° 0 mm 1 mps 747 mmHg 33%
13:00 +25°C° 0 mm 1 mps 747 mmHg 34%
14:00 +25°C° 0 mm 1 mps 747 mmHg 34%
15:00 +24°C° 0 mm 1 mps 747 mmHg 41%
16:00 +23°C° 0 mm 1 mps 747 mmHg 48%
17:00 +22°C° 0 mm 1 mps 747 mmHg 55%
18:00 +21°C° 0 mm 1 mps 748 mmHg 57%
19:00 +20°C° 0 mm 1 mps 748 mmHg 59%
20:00 +19°C° 0 mm 1 mps 748 mmHg 61%
21:00 +19°C° 0 mm 1 mps 748 mmHg 61%
22:00 +19°C° 0 mm 1 mps 748 mmHg 62%
23:00 +18°C° 0 mm 1 mps 748 mmHg 63%

Day after tomorrow, 26 July, Monday

Time Temperature Precipitation Wind Pressure Humidity
00:00 +18°C° 0 mm 1 mps 748 mmHg 63%
01:00 +18°C° 0 mm 1 mps 749 mmHg 64%
02:00 +18°C° 0 mm 1 mps 749 mmHg 64%
03:00 +18°C° 0 mm 1 mps 749 mmHg 65%
04:00 +18°C° 0 mm 1 mps 749 mmHg 66%
05:00 +18°C° 0 mm 1 mps 749 mmHg 66%
06:00 +19°C° 0 mm 1 mps 749 mmHg 66%
07:00 +19°C° 0 mm 1 mps 749 mmHg 66%
08:00 +20°C° 0 mm 1 mps 749 mmHg 66%
09:00 +21°C° 0 mm 1 mps 749 mmHg 62%
10:00 +22°C° 0 mm 1 mps 749 mmHg 58%
11:00 +24°C° 0 mm 2 mps 750 mmHg 54%
12:00 +25°C° 0 mm 2 mps 749 mmHg 50%
13:00 +26°C° 0 mm 2 mps 749 mmHg 45%
14:00 +27°C° 0 mm 2 mps 749 mmHg 41%
15:00 +26°C° 0 mm 2 mps 749 mmHg 45%
16:00 +26°C° 0 mm 2 mps 749 mmHg 48%
17:00 +25°C° 0 mm 1 mps 749 mmHg 52%
18:00 +23°C° 0 mm 1 mps 749 mmHg 56%
19:00 +22°C° 0 mm 1 mps 749 mmHg 61%
20:00 +21°C° 0 mm 1 mps 749 mmHg 65%
21:00 +20°C° 0 mm 1 mps 749 mmHg 68%
22:00 +19°C° 0 mm 1 mps 749 mmHg 71%
23:00 +19°C° 0 mm 1 mps 749 mmHg 74%

27 July, Tuesday

Time Temperature Precipitation Wind Pressure Humidity
00:00 +18°C° 0 mm 1 mps 749 mmHg 78%
01:00 +16°C° 0 mm 1 mps 749 mmHg 82%
02:00 +16°C° 0 mm 1 mps 749 mmHg 86%
03:00 +16°C° 0 mm 1 mps 749 mmHg 84%
04:00 +18°C° 0 mm 1 mps 749 mmHg 83%
05:00 +18°C° 0 mm 1 mps 749 mmHg 82%
06:00 +20°C° 0 mm 1 mps 749 mmHg 73%
07:00 +22°C° 0 mm 1 mps 749 mmHg 65%
08:00 +25°C° 0 mm 1 mps 749 mmHg 56%
09:00 +26°C° 0 mm 1 mps 749 mmHg 51%
10:00 +28°C° 0 mm 1 mps 748 mmHg 45%
11:00 +29°C° 0 mm 1 mps 748 mmHg 40%
12:00 +28°C° 0 mm 1 mps 748 mmHg 43%
13:00 +28°C° 0 mm 1 mps 748 mmHg 46%
14:00 +27°C° 0 mm 1 mps 747 mmHg 49%
15:00 +26°C° 0 mm 1 mps 747 mmHg 54%
16:00 +25°C° 0 mm 1 mps 747 mmHg 58%
17:00 +24°C° 0 mm 1 mps 747 mmHg 62%
18:00 +23°C° 0 mm 1 mps 747 mmHg 65%
19:00 +22°C° 0 mm 1 mps 747 mmHg 67%
20:00 +21°C° 0 mm 1 mps 747 mmHg 70%
21:00 +20°C° 0 mm 1 mps 746 mmHg 73%
22:00 +20°C° 0 mm 1 mps 746 mmHg 77%
23:00 +19°C° 0 mm 1 mps 746 mmHg 80%

28 July, Wednesday

Time Temperature Precipitation Wind Pressure Humidity
00:00 +18°C° 0 mm 1 mps 746 mmHg 82%
01:00 +18°C° 0 mm 1 mps 746 mmHg 84%
02:00 +16°C° 0 mm 1 mps 746 mmHg 86%
03:00 +18°C° 0 mm 1 mps 746 mmHg 86%
04:00 +18°C° 0 mm 1 mps 745 mmHg 85%
05:00 +18°C° 0 mm 1 mps 745 mmHg 85%
06:00 +21°C° 0 mm 1 mps 745 mmHg 75%
07:00 +23°C° 0 mm 2 mps 745 mmHg 65%
08:00 +25°C° 0 mm 2 mps 745 mmHg 56%
09:00 +27°C° 0 mm 2 mps 744 mmHg 51%
10:00 +28°C° 0 mm 2 mps 744 mmHg 47%
11:00 +29°C° 0 mm 3 mps 744 mmHg 42%
12:00 +28°C° 0 mm 3 mps 743 mmHg 44%
13:00 +28°C° 0 mm 2 mps 743 mmHg 45%
14:00 +28°C° 0 mm 2 mps 743 mmHg 47%
15:00 +27°C° 0 mm 2 mps 742 mmHg 51%
16:00 +26°C° 0 mm 2 mps 742 mmHg 54%
17:00 +25°C° 0 mm 1 mps 742 mmHg 58%
18:00 +24°C° 0 mm 1 mps 742 mmHg 62%
19:00 +23°C° 0 mm 1 mps 741 mmHg 66%
20:00 +21°C° 0 mm 1 mps 741 mmHg 70%
21:00 +21°C° 0 mm 1 mps 741 mmHg 71%
22:00 +20°C° 0 mm 1 mps 741 mmHg 73%
23:00 +20°C° 0 mm 1 mps 740 mmHg 75%

29 July, Thursday

Time Temperature Precipitation Wind Pressure Humidity
00:00 +19°C° 0 mm 1 mps 740 mmHg 80%
01:00 +19°C° 0 mm 1 mps 740 mmHg 85%
02:00 +18°C° 0 mm 1 mps 740 mmHg 90%
03:00 +18°C° 0.1 mm 1 mps 740 mmHg 91%
04:00 +18°C° 0.1 mm 1 mps 739 mmHg 92%
05:00 +19°C° 0.1 mm 1 mps 739 mmHg 92%
06:00 +19°C° 0.2 mm 1 mps 739 mmHg 93%
07:00 +19°C° 0.2 mm 1 mps 739 mmHg 93%
08:00 +17°C° 0.2 mm 0 mps 739 mmHg 93%
09:00 +18°C° 0.2 mm 0 mps 739 mmHg 91%
10:00 +20°C° 0.2 mm 1 mps 739 mmHg 89%
11:00 +21°C° 0.2 mm 1 mps 739 mmHg 87%
12:00 +23°C° 0.3 mm 1 mps 739 mmHg 80%
13:00 +22°C° 0.3 mm 0 mps 739 mmHg 72%
14:00 +24°C° 0.3 mm 0 mps 739 mmHg 64%
15:00 +23°C° 0.2 mm 0 mps 739 mmHg 66%
16:00 +25°C° 0.2 mm 1 mps 739 mmHg 68%
17:00 +25°C° 0.2 mm 1 mps 739 mmHg 70%
18:00 +23°C° 0.1 mm 1 mps 739 mmHg 77%
19:00 +22°C° 0.1 mm 1 mps 739 mmHg 83%
20:00 +20°C° 0.1 mm 1 mps 739 mmHg 90%
21:00 +19°C° 0 mm 1 mps 739 mmHg 92%
22:00 +19°C° 0 mm 1 mps 739 mmHg 93%
23:00 +18°C° 0 mm 1 mps 739 mmHg 94%
Show more